Regional Weather Roundup
Issued by NWS Sioux Falls, SD

Home | Current Version | Previous Version | Text Only | Print | Product List | Glossary Off
Versions: 1 2 3 4 5 6 7 8 9 10 11 12 13 14 15 16 17 18 19 20 21 22 23 24 25 26 27 28 29 30 31 32 33 34 35 36 37 38 39 40 41 42 43 44 45 46 47 48 49 50

000
ASUS43 KFSD 171102
RWRFSD

WEATHER ROUNDUP FOR SE SOUTH DAKOTA/SW MINNESOTA/NW IOWA
NATIONAL WEATHER SERVICE SIOUX FALLS SD
600 AM CDT TUE OCT 17 2017

NOTE: "FAIR" INDICATES FEW OR NO CLOUDS BELOW 12,000 FEET WITH NO
SIGNIFICANT WEATHER AND OR OBSTRUCTIONS TO VISIBILITY.


SDZ038>040-050-052>070-171200-
SOUTHEAST SOUTH DAKOTA

CITY           SKY/WX    TMP DP  RH WIND       PRES   REMARKS
BROOKINGS      CLEAR     39  36  89 SE5       30.02S
CHAMBERLAIN    NOT AVBL
HURON          CLEAR     39  37  92 CALM      30.01S
MADISON        FAIR      46  39  76 SW7       30.02S
MITCHELL       CLEAR     39  37  92 S5        30.04R
SIOUX FALLS    PTCLDY    40  38  93 CALM      30.03S
WINNER         FAIR      42  35  76 SW7       30.06S
YANKTON        CLEAR     42  38  85 CALM      30.05R
$$

MNZ071-072-080-081-089-090-097-098-171200-
SOUTHWEST MINNESOTA

CITY           SKY/WX    TMP DP  RH WIND       PRES   REMARKS
FAIRMONT       CLEAR     47  40  76 SW6       30.03S
JACKSON        PTCLDY    46  37  71 SW8       30.04S
MARSHALL       CLEAR     47  39  74 SW9       30.00S
MONTEVIDEO     CLEAR     43  36  75 CALM      30.00R
PIPESTONE      CLEAR     39  36  87 CALM      30.02S
REDWOOD FALLS  CLEAR     45  37  73 SW5       29.99S
TRACY          CLEAR     47  40  74 SW7       30.01S
WORTHINGTON    CLEAR     48  39  71 SW10      30.04S
$$

IAZ001>003-012>014-020>022-031-032-NEZ013-014-SDZ071-171200-
NORTHWEST IOWA

CITY           SKY/WX    TMP DP  RH WIND       PRES   REMARKS
CHEROKEE       CLEAR     44  40  88 CALM      30.07R
DENISON        CLEAR     48  41  76 S6G13     30.10F
ESTHERVILLE    CLEAR     49  40  71 SW9       30.04R
LE MARS        CLEAR     41  39  93 CALM      30.06S
ORANGE CITY    CLEAR     45  39  81 CALM      30.05S
SHELDON        CLEAR     37  36  93 SE5       30.04S
SIOUX CITY     CLEAR     39  38  96 SE8       30.07R
SPENCER        CLEAR     46  39  76 W6        30.05S
STORM LAKE     CLEAR     48  39  71 SW10      30.07S
$$

ABBREVIATIONS USED IN REMARKS
   TC - TEMPERATURE IN CELSIUS
  WCI - WIND CHILL INDEX
   HX - HEAT INDEX
  VSB - VISIBILITY





USA.gov is the U.S. government's official web portal to all federal, state and local government web resources and services.